#Datum;Uhrzeit;WR;Pac;DaySum;Status;WR;Pac;DaySum;Status;Pdc1;Udc;Temp;WR;Pac;DaySum;Status;Pdc1;Udc;Temp;WR;Pac;DaySum;Status;Pdc1;Udc;Temp;WR;Pac;DaySum;Status;Pdc1;Pdc2;Udc1;Udc2;Temp;WR;Pac;DaySum;Status;Pdc1;Pdc2;Udc1;Udc2;Temp;WR;Pac;DaySum;Status;Pdc1;Udc;Temp;WR;Pac;DaySum;Status;Pdc1;Udc;Temp;WR;Pac;DaySum;Status;Pdc1;Udc;Temp
16.01.21;23:55:00;1;525;27680;0;2;0;4;0;0;0;0;3;0;20;0;0;0;0;4;0;0;0;0;0;0;5;0;0;0;0;0;0;0;0;6;0;0;0;0;0;0;0;0;7;0;83;0;0;0;0;8;0;56;0;0;0;0;9;0;10;0;0;0;0
16.01.21;23:50:00;1;526;27636;0;2;0;4;0;0;0;0;3;0;20;0;0;0;0;4;0;0;0;0;0;0;5;0;0;0;0;0;0;0;0;6;0;0;0;0;0;0;0;0;7;0;83;0;0;0;0;8;0;56;0;0;0;0;9;0;10;0;0;0;0
16.01.21;23:45:00;1;552;27593;0;2;0;4;0;0;0;0;3;0;20;0;0;0;0;4;0;0;0;0;0;0;5;0;0;0;0;0;0;0;0;6;0;0;0;0;0;0;0;0;7;0;83;0;0;0;0;8;0;56;0;0;0;0;9;0;10;0;0;0;0
16.01.21;23:40:00;1;538;27545;0;2;0;4;0;0;0;0;3;0;20;0;0;0;0;4;0;0;0;0;0;0;5;0;0;0;0;0;0;0;0;6;0;0;0;0;0;0;0;0;7;0;83;0;0;0;0;8;0;56;0;0;0;0;9;0;10;0;0;0;0
16.01.21;23:35:00;1;538;27501;0;2;0;4;0;0;0;0;3;0;20;0;0;0;0;4;0;0;0;0;0;0;5;0;0;0;0;0;0;0;0;6;0;0;0;0;0;0;0;0;7;0;83;0;0;0;0;8;0;56;0;0;0;0;9;0;10;0;0;0;0
16.01.21;23:30:00;1;558;27456;0;2;0;4;0;0;0;0;3;0;20;0;0;0;0;4;0;0;0;0;0;0;5;0;0;0;0;0;0;0;0;6;0;0;0;0;0;0;0;0;7;0;83;0;0;0;0;8;0;56;0;0;0;0;9;0;10;0;0;0;0
16.01.21;23:25:00;1;1327;27409;0;2;0;4;0;0;0;0;3;0;20;0;0;0;0;4;0;0;0;0;0;0;5;0;0;0;0;0;0;0;0;6;0;0;0;0;0;0;0;0;7;0;83;0;0;0;0;8;0;56;0;0;0;0;9;0;10;0;0;0;0
16.01.21;23:20:00;1;535;27321;0;2;0;4;0;0;0;0;3;0;20;0;0;0;0;4;0;0;0;0;0;0;5;0;0;0;0;0;0;0;0;6;0;0;0;0;0;0;0;0;7;0;83;0;0;0;0;8;0;56;0;0;0;0;9;0;10;0;0;0;0
16.01.21;23:15:00;1;616;27276;0;2;0;4;0;0;0;0;3;0;20;0;0;0;0;4;0;0;0;0;0;0;5;0;0;0;0;0;0;0;0;6;0;0;0;0;0;0;0;0;7;0;83;0;0;0;0;8;0;56;0;0;0;0;9;0;10;0;0;0;0
16.01.21;23:10:00;1;681;27222;0;2;0;4;0;0;0;0;3;0;20;0;0;0;0;4;0;0;0;0;0;0;5;0;0;0;0;0;0;0;0;6;0;0;0;0;0;0;0;0;7;0;83;0;0;0;0;8;0;56;0;0;0;0;9;0;10;0;0;0;0
16.01.21;23:05:00;1;737;27165;0;2;0;4;0;0;0;0;3;0;20;0;0;0;0;4;0;0;0;0;0;0;5;0;0;0;0;0;0;0;0;6;0;0;0;0;0;0;0;0;7;0;83;0;0;0;0;8;0;56;0;0;0;0;9;0;10;0;0;0;0
16.01.21;23:00:00;1;696;27104;0;2;0;4;0;0;0;0;3;0;20;0;0;0;0;4;0;0;0;0;0;0;5;0;0;0;0;0;0;0;0;6;0;0;0;0;0;0;0;0;7;0;83;0;0;0;0;8;0;56;0;0;0;0;9;0;10;0;0;0;0
16.01.21;22:55:00;1;744;27046;0;2;0;4;0;0;0;0;3;0;20;0;0;0;0;4;0;0;0;0;0;0;5;0;0;0;0;0;0;0;0;6;0;0;2;0;0;0;0;0;7;0;83;0;0;0;0;8;0;56;0;0;0;0;9;0;10;0;0;0;0
16.01.21;22:50:00;1;764;26983;0;2;0;4;0;0;0;0;3;0;20;0;0;0;0;4;0;0;0;0;0;0;5;0;0;0;0;0;0;0;0;6;0;0;2;0;0;0;0;0;7;0;83;0;0;0;0;8;0;56;0;0;0;0;9;0;10;0;0;0;0
16.01.21;22:45:00;1;815;26917;0;2;0;4;0;0;0;0;3;0;20;0;0;0;0;4;0;0;0;0;0;0;5;0;0;0;0;0;0;0;0;6;0;0;2;0;0;0;0;0;7;0;83;0;0;0;0;8;0;56;0;0;0;0;9;0;10;0;0;0;0
16.01.21;22:40:00;1;705;26849;0;2;0;4;0;0;0;0;3;0;20;0;0;0;0;4;0;0;0;0;0;0;5;0;0;0;0;0;0;0;0;6;0;0;2;0;0;0;0;0;7;0;83;0;0;0;0;8;0;56;0;0;0;0;9;0;10;0;0;0;0
16.01.21;22:35:00;1;702;26791;0;2;0;4;0;0;0;0;3;0;20;0;0;0;0;4;0;0;0;0;0;0;5;0;0;0;0;0;0;0;0;6;0;0;2;0;0;0;0;0;7;0;83;0;0;0;0;8;0;56;0;0;0;0;9;0;10;0;0;0;0
16.01.21;22:30:00;1;731;26731;0;2;0;4;0;0;0;0;3;0;20;0;0;0;0;4;0;0;0;0;0;0;5;0;0;0;0;0;0;0;0;6;0;0;2;0;0;0;0;0;7;0;83;0;0;0;0;8;0;56;0;0;0;0;9;0;10;0;0;0;0
16.01.21;22:25:00;1;728;26670;0;2;0;4;0;0;0;0;3;0;20;0;0;0;0;4;0;0;0;0;0;0;5;0;0;0;0;0;0;0;0;6;0;0;2;0;0;0;0;0;7;0;83;0;0;0;0;8;0;56;0;0;0;0;9;0;10;0;0;0;0
16.01.21;22:20:00;1;741;26609;0;2;0;4;0;0;0;0;3;0;20;0;0;0;0;4;0;0;0;0;0;0;5;0;0;0;0;0;0;0;0;6;0;0;2;0;0;0;0;0;7;0;83;0;0;0;0;8;0;56;0;0;0;0;9;0;10;0;0;0;0
16.01.21;22:15:00;1;823;26546;0;2;0;4;0;0;0;0;3;0;20;0;0;0;0;4;0;0;0;0;0;0;5;0;0;0;0;0;0;0;0;6;0;0;2;0;0;0;0;0;7;0;83;0;0;0;0;8;0;56;0;0;0;0;9;0;10;0;0;0;0
16.01.21;22:10:00;1;749;26477;0;2;0;4;0;0;0;0;3;0;20;0;0;0;0;4;0;0;0;0;0;0;5;0;0;0;0;0;0;0;0;6;0;0;2;0;0;0;0;0;7;0;83;0;0;0;0;8;0;56;0;0;0;0;9;0;10;0;0;0;0
16.01.21;22:05:00;1;746;26415;0;2;0;4;0;0;0;0;3;0;20;0;0;0;0;4;0;0;0;0;0;0;5;0;0;0;0;0;0;0;0;6;0;0;2;0;0;0;0;0;7;0;83;0;0;0;0;8;0;56;0;0;0;0;9;0;10;0;0;0;0
16.01.21;22:00:00;1;736;26353;0;2;0;4;0;0;0;0;3;0;20;0;0;0;0;4;0;0;0;0;0;0;5;0;0;0;0;0;0;0;0;6;0;0;2;0;0;0;0;0;7;0;83;0;0;0;0;8;0;56;0;0;0;0;9;0;10;0;0;0;0
16.01.21;21:55:00;1;813;26291;0;2;0;4;0;0;0;0;3;0;20;0;0;0;0;4;0;0;0;0;0;0;5;0;0;0;0;0;0;0;0;6;0;0;2;0;0;0;0;0;7;0;83;0;0;0;0;8;0;56;0;0;0;0;9;0;10;0;0;0;0
16.01.21;21:50:00;1;876;26223;0;2;0;4;0;0;0;0;3;0;20;0;0;0;0;4;0;0;0;0;0;0;5;0;0;0;0;0;0;0;0;6;0;0;2;0;0;0;0;0;7;0;83;0;0;0;0;8;0;56;0;0;0;0;9;0;10;0;0;0;0
16.01.21;21:45:00;1;1295;26151;0;2;0;4;0;0;0;0;3;0;20;0;0;0;0;4;0;0;0;0;0;0;5;0;0;0;0;0;0;0;0;6;0;0;2;0;0;0;0;0;7;0;83;0;0;0;0;8;0;56;0;0;0;0;9;0;10;0;0;0;0
16.01.21;21:40:00;1;850;26054;0;2;0;4;0;0;0;0;3;0;20;0;0;0;0;4;0;0;0;0;0;0;5;0;0;0;0;0;0;0;0;6;0;0;2;0;0;0;0;0;7;0;83;0;0;0;0;8;0;56;0;0;0;0;9;0;10;0;0;0;0
16.01.21;21:35:00;1;898;25982;0;2;0;4;0;0;0;0;3;0;20;0;0;0;0;4;0;0;0;0;0;0;5;0;0;0;0;0;0;0;0;6;0;0;2;0;0;0;0;0;7;0;83;0;0;0;0;8;0;56;0;0;0;0;9;0;10;0;0;0;0
16.01.21;21:30:00;1;912;25899;0;2;0;4;0;0;0;0;3;0;20;0;0;0;0;4;0;0;0;0;0;0;5;0;0;0;0;0;0;0;0;6;0;0;2;0;0;0;0;0;7;0;83;0;0;0;0;8;0;56;0;0;0;0;9;0;10;0;0;0;0
16.01.21;21:25:00;1;861;25824;0;2;0;4;0;0;0;0;3;0;20;0;0;0;0;4;0;0;0;0;0;0;5;0;0;0;0;0;0;0;0;6;0;0;2;0;0;0;0;0;7;0;83;0;0;0;0;8;0;56;0;0;0;0;9;0;10;0;0;0;0
16.01.21;21:20:00;1;781;25752;0;2;0;4;0;0;0;0;3;0;20;0;0;0;0;4;0;0;0;0;0;0;5;0;0;0;0;0;0;0;0;6;0;0;2;0;0;0;0;0;7;0;83;0;0;0;0;8;0;56;0;0;0;0;9;0;10;0;0;0;0
16.01.21;21:15:00;1;772;25687;0;2;0;4;0;0;0;0;3;0;20;0;0;0;0;4;0;0;0;0;0;0;5;0;0;0;0;0;0;0;0;6;0;0;2;0;0;0;0;0;7;0;83;0;0;0;0;8;0;56;0;0;0;0;9;0;10;0;0;0;0
16.01.21;21:10:00;1;773;25623;0;2;0;4;0;0;0;0;3;0;20;0;0;0;0;4;0;0;0;0;0;0;5;0;0;0;0;0;0;0;0;6;0;0;2;0;0;0;0;0;7;0;83;0;0;0;0;8;0;56;0;0;0;0;9;0;10;0;0;0;0
16.01.21;21:05:00;1;692;25559;0;2;0;4;0;0;0;0;3;0;20;0;0;0;0;4;0;0;0;0;0;0;5;0;0;0;0;0;0;0;0;6;0;0;2;0;0;0;0;0;7;0;83;0;0;0;0;8;0;56;0;0;0;0;9;0;10;0;0;0;0
16.01.21;21:00:00;1;712;25501;0;2;0;4;0;0;0;0;3;0;20;0;0;0;0;4;0;0;0;0;0;0;5;0;0;0;0;0;0;0;0;6;0;0;2;0;0;0;0;0;7;0;83;0;0;0;0;8;0;56;0;0;0;0;9;0;10;0;0;0;0
16.01.21;20:55:00;1;741;25441;0;2;0;4;0;0;0;0;3;0;20;0;0;0;0;4;0;0;0;0;0;0;5;0;0;0;0;0;0;0;0;6;0;0;2;0;0;0;0;0;7;0;83;0;0;0;0;8;0;56;0;0;0;0;9;0;10;0;0;0;0
16.01.21;20:50:00;1;783;25379;0;2;0;4;0;0;0;0;3;0;20;0;0;0;0;4;0;0;0;0;0;0;5;0;0;0;0;0;0;0;0;6;0;0;2;0;0;0;0;0;7;0;83;0;0;0;0;8;0;56;0;0;0;0;9;0;10;0;0;0;0
16.01.21;20:45:00;1;1376;25312;0;2;0;4;0;0;0;0;3;0;20;0;0;0;0;4;0;0;0;0;0;0;5;0;0;0;0;0;0;0;0;6;0;0;2;0;0;0;0;0;7;0;83;0;0;0;0;8;0;56;0;0;0;0;9;0;10;0;0;0;0
16.01.21;20:40:00;1;785;25237;0;2;0;4;0;0;0;0;3;0;20;0;0;0;0;4;0;0;0;0;0;0;5;0;0;0;0;0;0;0;0;6;0;0;2;0;0;0;0;0;7;0;83;0;0;0;0;8;0;56;0;0;0;0;9;0;10;0;0;0;0
16.01.21;20:35:00;1;747;25171;0;2;0;4;0;0;0;0;3;0;20;0;0;0;0;4;0;0;0;0;0;0;5;0;0;0;0;0;0;0;0;6;0;0;2;0;0;0;0;0;7;0;83;0;0;0;0;8;0;56;0;0;0;0;9;0;10;0;0;0;0
16.01.21;20:30:00;1;795;25106;0;2;0;4;0;0;0;0;3;0;20;0;0;0;0;4;0;0;0;0;0;0;5;0;0;0;0;0;0;0;0;6;0;0;2;0;0;0;0;0;7;0;83;0;0;0;0;8;0;56;0;0;0;0;9;0;10;0;0;0;0
16.01.21;20:25:00;1;668;25040;0;2;0;4;0;0;0;0;3;0;20;0;0;0;0;4;0;0;0;0;0;0;5;0;0;0;0;0;0;0;0;6;0;0;2;0;0;0;0;0;7;0;83;0;0;0;0;8;0;56;0;0;0;0;9;0;10;0;0;0;0
16.01.21;20:20:00;1;634;24986;0;2;0;4;0;0;0;0;3;0;20;0;0;0;0;4;0;0;0;0;0;0;5;0;0;0;0;0;0;0;0;6;0;0;2;0;0;0;0;0;7;0;83;0;0;0;0;8;0;56;0;0;0;0;9;0;10;0;0;0;0
16.01.21;20:15:00;1;685;24933;0;2;0;4;0;0;0;0;3;0;20;0;0;0;0;4;0;0;0;0;0;0;5;0;0;0;0;0;0;0;0;6;0;0;2;0;0;0;0;0;7;0;83;0;0;0;0;8;0;56;0;0;0;0;9;0;10;0;0;0;0
16.01.21;20:10:00;1;654;24876;0;2;0;4;0;0;0;0;3;0;20;0;0;0;0;4;0;0;0;0;0;0;5;0;0;0;0;0;0;0;0;6;0;0;2;0;0;0;0;0;7;0;83;0;0;0;0;8;0;56;0;0;0;0;9;0;10;0;0;0;0
16.01.21;20:05:00;1;741;24822;0;2;0;4;0;0;0;0;3;0;20;0;0;0;0;4;0;0;0;0;0;0;5;0;0;0;0;0;0;0;0;6;0;0;2;0;0;0;0;0;7;0;83;0;0;0;0;8;0;56;0;0;0;0;9;0;10;0;0;0;0
16.01.21;20:00:00;1;665;24760;0;2;0;4;0;0;0;0;3;0;20;0;0;0;0;4;0;0;0;0;0;0;5;0;0;0;0;0;0;0;0;6;0;0;2;0;0;0;0;0;7;0;83;0;0;0;0;8;0;56;0;0;0;0;9;0;10;0;0;0;0
16.01.21;19:55:00;1;633;24705;0;2;0;4;0;0;0;0;3;0;20;0;0;0;0;4;0;0;0;0;0;0;5;0;0;0;0;0;0;0;0;6;0;0;2;0;0;0;0;0;7;0;83;0;0;0;0;8;0;56;0;0;0;0;9;0;10;0;0;0;0
16.01.21;19:50:00;1;709;24652;0;2;0;4;0;0;0;0;3;0;20;0;0;0;0;4;0;0;0;0;0;0;5;0;0;0;0;0;0;0;0;6;0;0;2;0;0;0;0;0;7;0;83;0;0;0;0;8;0;56;0;0;0;0;9;0;10;0;0;0;0
16.01.21;19:45:00;1;799;24592;0;2;0;4;0;0;0;0;3;0;20;0;0;0;0;4;0;0;0;0;0;0;5;0;0;0;0;0;0;0;0;6;0;0;2;0;0;0;0;0;7;0;83;0;0;0;0;8;0;56;0;0;0;0;9;0;10;0;0;0;0
16.01.21;19:40:00;1;713;24530;0;2;0;4;0;0;0;0;3;0;20;0;0;0;0;4;0;0;0;0;0;0;5;0;0;0;0;0;0;0;0;6;0;0;2;0;0;0;0;0;7;0;83;0;0;0;0;8;0;56;0;0;0;0;9;0;10;0;0;0;0
16.01.21;19:35:00;1;685;24470;0;2;0;4;0;0;0;0;3;0;20;0;0;0;0;4;0;0;0;0;0;0;5;0;0;0;0;0;0;0;0;6;0;0;0;0;0;0;0;0;7;0;83;0;0;0;0;8;0;56;0;0;0;0;9;0;10;0;0;0;0
16.01.21;19:30:00;1;623;24414;0;2;0;4;0;0;0;0;3;0;20;0;0;0;0;4;0;0;0;0;0;0;5;0;0;0;0;0;0;0;0;6;0;0;2;0;0;0;0;0;7;0;83;0;0;0;0;8;0;56;0;0;0;0;9;0;10;0;0;0;0
16.01.21;19:25:00;1;635;24362;0;2;0;4;0;0;0;0;3;0;20;0;0;0;0;4;0;0;0;0;0;0;5;0;0;0;0;0;0;0;0;6;0;0;2;0;0;0;0;0;7;0;83;0;0;0;0;8;0;56;0;0;0;0;9;0;10;0;0;0;0
16.01.21;19:20:00;1;653;24309;0;2;0;4;0;0;0;0;3;0;20;0;0;0;0;4;0;0;0;0;0;0;5;0;0;0;0;0;0;0;0;6;0;0;2;0;0;0;0;0;7;0;83;0;0;0;0;8;0;56;0;0;0;0;9;0;10;0;0;0;0
16.01.21;19:15:00;1;661;24254;0;2;0;4;0;0;0;0;3;0;20;0;0;0;0;4;0;0;0;0;0;0;5;0;0;0;0;0;0;0;0;6;0;0;2;0;0;0;0;0;7;0;83;0;0;0;0;8;0;56;0;0;0;0;9;0;10;0;0;0;0
16.01.21;19:10:00;1;637;24199;0;2;0;4;0;0;0;0;3;0;20;0;0;0;0;4;0;0;0;0;0;0;5;0;0;0;0;0;0;0;0;6;0;0;2;0;0;0;0;0;7;0;83;0;0;0;0;8;0;56;0;0;0;0;9;0;10;0;0;0;0
16.01.21;19:05:00;1;675;24145;0;2;0;4;0;0;0;0;3;0;20;0;0;0;0;4;0;0;0;0;0;0;5;0;0;0;0;0;0;0;0;6;0;0;2;0;0;0;0;0;7;0;83;0;0;0;0;8;0;56;0;0;0;0;9;0;10;0;0;0;0
16.01.21;19:00:00;1;909;24088;0;2;0;4;0;0;0;0;3;0;20;0;0;0;0;4;0;0;0;0;0;0;5;0;0;0;0;0;0;0;0;6;0;0;2;0;0;0;0;0;7;0;83;0;0;0;0;8;0;56;0;0;0;0;9;0;10;0;0;0;0
16.01.21;18:55:00;1;1134;24006;0;2;0;4;0;0;0;0;3;0;20;0;0;0;0;4;0;0;0;0;0;0;5;0;0;0;0;0;0;0;0;6;0;0;2;0;0;0;0;0;7;0;83;0;0;0;0;8;0;56;0;0;0;0;9;0;10;0;0;0;0
16.01.21;18:50:00;1;1792;23911;0;2;0;4;0;0;0;0;3;0;20;0;0;0;0;4;0;0;0;0;0;0;5;0;0;0;0;0;0;0;0;6;0;0;2;0;0;0;0;0;7;0;83;0;0;0;0;8;0;56;0;0;0;0;9;0;10;0;0;0;0
16.01.21;18:45:00;1;2723;23733;0;2;0;4;0;0;0;0;3;0;20;0;0;0;0;4;0;0;0;0;0;0;5;0;0;0;0;0;0;0;0;6;0;0;2;0;0;0;0;0;7;0;83;0;0;0;0;8;0;56;0;0;0;0;9;0;10;0;0;0;0
16.01.21;18:40:00;1;1929;23579;0;2;0;4;0;0;0;0;3;0;20;0;0;0;0;4;0;0;0;0;0;0;5;0;0;0;0;0;0;0;0;6;0;0;2;0;0;0;0;0;7;0;83;0;0;0;0;8;0;56;0;0;0;0;9;0;10;0;0;0;0
16.01.21;18:35:00;1;1866;23403;0;2;0;4;0;0;0;0;3;0;20;0;0;0;0;4;0;0;0;0;0;0;5;0;0;0;0;0;0;0;0;6;0;0;2;0;0;0;0;0;7;0;83;0;0;0;0;8;0;56;0;0;0;0;9;0;10;0;0;0;0
16.01.21;18:30:00;1;1827;23211;0;2;0;4;0;0;0;0;3;0;20;0;0;0;0;4;0;0;0;0;0;0;5;0;0;0;0;0;0;0;0;6;0;0;2;0;0;0;0;0;7;0;83;0;0;0;0;8;0;56;0;0;0;0;9;0;10;0;0;0;0
16.01.21;18:25:00;1;2330;23022;0;2;0;4;0;0;0;0;3;0;20;0;0;0;0;4;0;0;0;0;0;0;5;0;0;0;0;0;0;0;0;6;0;0;2;0;0;0;0;0;7;0;83;0;0;0;0;8;0;56;0;0;0;0;9;0;10;0;0;0;0
16.01.21;18:20:00;1;1961;22795;0;2;0;4;0;0;0;0;3;0;20;0;0;0;0;4;0;0;0;0;0;0;5;0;0;0;0;0;0;0;0;6;0;0;2;0;0;0;0;0;7;0;83;0;0;0;0;8;0;56;0;0;0;0;9;0;10;0;0;0;0
16.01.21;18:15:00;1;4505;22629;0;2;0;4;0;0;0;0;3;0;20;0;0;0;0;4;0;0;0;0;0;0;5;0;0;0;0;0;0;0;0;6;0;0;2;0;0;0;0;0;7;0;83;0;0;0;0;8;0;56;0;0;0;0;9;0;10;0;0;0;0
16.01.21;18:10:00;1;2920;22162;0;2;0;4;0;0;0;0;3;0;20;0;0;0;0;4;0;0;0;0;0;0;5;0;0;0;0;0;0;0;0;6;0;0;2;0;0;0;0;0;7;0;83;0;0;0;0;8;0;56;0;0;0;0;9;0;10;0;0;0;0
16.01.21;18:05:00;1;2307;21900;0;2;0;4;0;0;0;0;3;0;20;0;0;0;0;4;0;0;0;0;0;0;5;0;0;0;0;0;0;0;0;6;0;0;2;0;0;0;0;0;7;0;83;0;0;0;0;8;0;56;0;0;0;0;9;0;10;0;0;0;0
16.01.21;18:00:00;1;1177;21750;0;2;0;4;0;0;0;0;3;0;20;0;0;0;0;4;0;0;0;0;0;0;5;0;0;0;0;0;0;0;0;6;0;0;2;0;0;0;0;0;7;0;83;0;0;0;0;8;0;56;0;0;0;0;9;0;10;0;0;0;0
16.01.21;17:55:00;1;1137;21651;0;2;0;4;0;0;0;0;3;0;20;0;0;0;0;4;0;0;0;0;0;0;5;0;0;0;0;0;0;0;0;6;0;0;2;0;0;0;0;0;7;0;83;0;0;0;0;8;0;56;0;0;0;0;9;0;10;0;0;0;0
16.01.21;17:50:00;1;2382;21556;0;2;0;4;0;0;0;0;3;0;20;0;0;0;0;4;0;0;0;0;0;0;5;0;0;0;0;0;0;0;0;6;0;0;2;0;0;0;0;0;7;0;83;0;0;0;0;8;0;56;0;0;0;0;9;0;10;0;0;0;0
16.01.21;17:45:00;1;2920;21351;0;2;0;4;0;0;0;0;3;0;20;0;0;0;0;4;0;0;0;0;0;0;5;0;0;0;0;0;0;0;0;6;0;0;2;0;0;0;0;0;7;0;83;0;0;0;0;8;0;56;0;0;0;0;9;0;10;0;0;0;0
16.01.21;17:40:00;1;3170;21093;0;2;0;4;0;0;0;0;3;0;20;0;0;0;0;4;0;0;0;0;0;0;5;0;0;0;0;0;0;0;0;6;0;0;2;0;0;0;0;0;7;0;83;0;0;0;0;8;0;56;0;0;0;0;9;0;10;0;0;0;0
16.01.21;17:35:00;1;2962;20836;0;2;0;4;0;0;0;0;3;0;20;0;0;0;0;4;0;0;0;0;0;0;5;0;0;0;0;0;0;0;0;6;0;0;2;0;0;0;0;0;7;0;83;0;0;0;0;8;0;56;0;0;0;0;9;0;10;0;0;0;0
16.01.21;17:30:00;1;2987;20582;0;2;0;4;0;0;0;0;3;0;20;0;0;0;0;4;0;0;0;0;0;0;5;0;0;0;0;0;0;0;0;6;0;0;2;0;0;0;0;0;7;0;83;0;0;0;0;8;0;56;0;0;0;0;9;0;10;0;0;0;0
16.01.21;17:25:00;1;2935;20341;0;2;0;4;0;0;0;0;3;0;20;0;0;0;0;4;0;0;0;0;0;0;5;0;0;0;0;0;0;0;0;6;0;0;2;0;0;0;0;0;7;0;83;0;0;0;0;8;0;56;0;0;0;0;9;0;10;0;0;0;0
16.01.21;17:20:00;1;3042;20098;0;2;0;4;0;0;0;0;3;0;20;0;0;0;0;4;0;0;0;0;0;0;5;0;0;0;0;0;0;0;0;6;0;0;2;0;0;0;0;0;7;0;83;0;0;0;0;8;0;56;0;0;0;0;9;0;10;0;0;0;0
16.01.21;17:15:00;1;2762;19844;0;2;0;4;0;0;0;0;3;0;20;0;0;0;0;4;0;0;0;0;0;0;5;0;0;0;0;0;0;0;0;6;0;0;2;0;0;0;0;0;7;0;83;0;0;0;0;8;0;56;0;0;0;0;9;0;10;0;0;0;0
16.01.21;17:10:00;1;2586;19616;0;2;0;4;0;0;0;0;3;0;20;0;0;0;0;4;0;0;0;0;0;0;5;0;0;0;0;0;0;0;0;6;0;0;2;0;0;0;0;0;7;0;83;0;0;0;0;8;0;56;0;0;0;0;9;0;10;0;0;0;0
16.01.21;17:05:00;1;2590;19401;0;2;0;4;0;0;0;0;3;0;20;0;0;0;0;4;0;0;0;0;0;0;5;0;0;0;0;0;0;0;0;6;0;0;2;0;0;0;0;0;7;0;83;0;0;0;0;8;0;56;0;0;0;0;9;0;10;0;0;0;0
16.01.21;17:00:00;1;2831;19184;0;2;0;4;0;0;0;0;3;0;20;0;0;0;0;4;0;0;0;0;0;0;5;0;0;0;0;0;0;0;0;6;0;0;2;0;0;0;0;0;7;0;83;0;0;0;0;8;0;56;0;0;0;0;9;0;10;0;0;0;0
16.01.21;16:55:00;1;2778;18952;0;2;0;4;0;0;0;0;3;0;20;0;0;0;0;4;0;0;0;0;0;0;5;0;0;0;0;0;0;0;0;6;0;0;2;0;0;0;0;0;7;0;83;0;0;0;0;8;0;56;0;0;0;0;9;0;10;0;0;0;0
16.01.21;16:50:00;1;2833;18720;0;2;0;4;0;0;0;0;3;0;20;0;0;0;0;4;0;0;0;0;0;0;5;0;0;0;0;0;0;0;0;6;0;0;2;0;0;0;0;0;7;0;83;0;0;0;0;8;0;56;0;0;0;0;9;0;10;0;0;0;0
16.01.21;16:45:00;1;3674;18474;0;2;0;4;0;0;0;0;3;0;20;0;0;0;0;4;0;0;0;0;0;0;5;0;0;0;0;0;0;0;0;6;0;0;2;0;0;0;0;0;7;0;83;0;0;0;0;8;0;56;0;0;0;0;9;0;10;0;0;0;0
16.01.21;16:40:00;1;3555;18170;0;2;0;4;0;0;0;0;3;0;20;0;0;30;1;4;0;0;0;0;0;0;5;0;0;0;0;0;0;0;0;6;0;0;2;0;0;0;0;0;7;0;83;0;0;0;0;8;0;56;0;0;0;0;9;0;10;0;0;0;0
16.01.21;16:35:00;1;2749;17882;0;2;0;4;0;0;0;0;3;0;20;6;0;285;9;4;0;0;0;0;0;0;5;0;0;0;0;0;0;0;0;6;0;0;2;0;0;0;0;0;7;0;83;0;0;0;0;8;0;56;0;0;0;0;9;0;10;0;0;0;0
16.01.21;16:30:00;1;2710;17651;0;2;0;4;0;0;95;1;3;0;20;6;0;331;9;4;0;0;0;0;0;0;5;0;0;0;0;0;0;0;0;6;0;0;0;0;0;0;0;0;7;0;83;0;0;0;0;8;0;56;0;0;0;0;9;0;10;0;0;0;0
16.01.21;16:25:00;1;2666;17425;0;2;0;4;6;0;282;5;3;0;20;6;0;392;9;4;0;0;0;0;0;0;5;0;0;0;0;0;0;0;0;6;0;0;2;0;0;0;0;0;7;0;83;0;0;0;0;8;0;56;0;0;0;0;9;0;10;0;0;0;0
16.01.21;16:20:00;1;2697;17203;0;2;0;4;6;0;303;5;3;0;20;6;0;428;9;4;0;0;0;0;0;0;5;0;0;0;0;0;0;0;0;6;0;0;2;0;0;0;0;0;7;0;83;0;0;189;6;8;0;56;0;0;110;3;9;0;10;0;0;234;5
16.01.21;16:15:00;1;2740;16969;0;2;0;4;6;0;332;5;3;0;20;6;1;466;9;4;0;0;0;0;0;0;5;0;0;0;0;0;0;0;0;6;0;0;2;0;0;0;0;0;7;0;83;6;0;318;9;8;0;56;6;0;301;8;9;0;10;6;0;323;6
16.01.21;16:10:00;1;2743;16741;0;2;0;4;6;0;365;5;3;0;20;4;3;487;9;4;0;0;0;0;0;0;5;0;0;0;0;0;0;0;0;6;0;0;2;0;0;0;0;1;7;0;83;6;0;400;9;8;0;56;6;0;384;8;9;0;10;6;0;398;6
16.01.21;16:05:00;1;2625;16514;0;2;0;4;6;0;376;5;3;0;20;6;2;513;9;4;0;0;0;0;0;0;5;0;0;0;0;0;0;0;0;6;0;0;1;0;0;0;0;1;7;0;83;6;0;407;9;8;0;56;6;0;405;8;9;0;10;6;0;423;6
16.01.21;16:00:00;1;2776;16291;0;2;0;4;6;0;370;5;3;0;20;6;1;510;9;4;0;0;0;0;0;0;5;0;0;0;0;0;0;0;0;6;0;0;0;0;0;0;0;2;7;0;83;6;0;412;9;8;0;56;6;0;397;8;9;0;10;6;0;419;6
16.01.21;15:55:00;1;2782;16059;0;2;0;4;6;0;366;5;3;0;20;6;1;502;9;4;0;0;0;0;0;0;5;0;0;0;0;0;0;0;0;6;0;0;1;0;0;0;0;1;7;0;83;6;0;396;9;8;0;56;6;0;380;8;9;0;10;6;0;394;6
16.01.21;15:50:00;1;1730;15808;0;2;0;4;6;0;373;5;3;2;20;6;4;485;9;4;0;0;0;0;0;0;5;0;0;0;0;0;0;0;0;6;0;0;1;0;0;0;0;1;7;0;83;6;0;408;9;8;0;56;6;0;393;8;9;0;10;6;0;405;6
16.01.21;15:45:00;1;732;15664;0;2;0;4;6;0;376;5;3;0;19;6;2;511;9;4;0;0;0;0;0;0;5;0;0;0;0;0;0;0;0;6;0;0;1;0;0;0;0;1;7;0;83;6;0;406;9;8;0;56;6;0;402;9;9;0;10;6;0;412;6
16.01.21;15:40:00;1;821;15603;0;2;0;4;6;0;382;5;3;2;19;4;4;495;9;4;0;0;0;0;0;0;5;0;0;0;0;0;0;0;0;6;0;0;2;0;0;0;0;1;7;0;83;4;0;415;9;8;0;56;6;0;419;9;9;0;10;6;0;441;6
16.01.21;15:35:00;1;1405;15531;0;2;0;4;6;0;392;5;3;2;19;3;6;502;9;4;0;0;0;0;0;0;5;0;0;0;0;0;0;0;0;6;0;0;1;3;2;29;28;7;7;0;83;3;2;423;9;8;1;56;6;1;431;9;9;0;10;6;0;463;6
16.01.21;15:30:00;1;664;15437;0;2;0;4;6;0;396;5;3;2;19;6;6;511;9;4;0;0;0;0;0;0;5;0;0;0;0;0;0;0;0;6;0;0;0;3;2;37;36;4;7;1;83;6;1;451;9;8;0;56;3;1;430;9;9;0;10;6;0;490;6
16.01.21;15:25:00;1;642;15382;0;2;0;4;6;0;390;5;3;1;19;6;3;523;9;4;0;0;0;0;0;0;5;0;0;0;0;0;0;0;0;6;0;0;1;1;1;12;11;4;7;0;83;6;0;427;9;8;0;56;6;0;427;9;9;0;10;4;0;463;6
16.01.21;15:20:00;1;1112;15328;0;2;0;4;6;0;388;5;3;2;19;6;5;502;9;4;0;0;0;0;0;0;5;0;0;0;0;0;0;0;0;6;0;0;0;0;2;7;7;3;7;0;83;6;0;431;9;8;0;56;6;0;423;9;9;0;10;6;0;461;6
16.01.21;15:15:00;1;630;15236;0;2;0;4;6;0;379;5;3;0;18;6;3;514;9;4;0;0;0;0;0;0;5;0;0;0;0;0;0;0;0;6;0;0;0;0;0;0;0;0;7;0;83;6;0;409;9;8;0;56;6;0;410;9;9;0;10;6;0;435;6
16.01.21;15:10:00;1;629;15183;0;2;0;4;6;0;367;5;3;0;18;6;1;466;9;4;0;0;0;0;0;0;5;0;0;0;0;0;0;0;0;6;0;0;1;0;0;0;0;1;7;0;83;6;0;388;9;8;0;56;6;0;372;9;9;0;10;6;0;406;6
16.01.21;15:05:00;1;626;15131;0;2;0;4;6;0;368;5;3;0;18;3;3;476;9;4;0;0;0;0;0;0;5;0;0;0;0;0;0;0;0;6;0;0;1;0;0;0;0;1;7;0;83;6;0;391;9;8;0;56;6;0;375;9;9;0;10;6;0;409;6
16.01.21;15:00:00;1;845;15034;0;2;0;4;6;0;355;5;3;0;18;6;1;475;9;4;0;0;0;0;0;0;5;0;0;0;0;0;0;0;0;6;0;0;2;0;0;0;0;0;7;0;83;6;0;358;9;8;0;56;6;0;343;9;9;0;10;6;0;372;6
16.01.21;14:55:00;1;743;14974;0;2;0;4;6;0;357;5;3;0;18;6;1;474;9;4;0;0;0;0;0;0;5;0;0;0;0;0;0;0;0;6;0;0;2;0;0;0;0;1;7;0;83;6;0;362;9;8;0;56;6;0;347;9;9;0;10;6;0;376;6
16.01.21;14:50:00;1;721;14909;0;2;0;4;6;0;361;5;3;0;18;6;1;490;9;4;0;0;0;0;0;0;5;0;0;0;0;0;0;0;0;6;0;0;2;0;0;0;0;0;7;0;83;6;0;369;10;8;0;56;6;0;356;9;9;0;10;6;0;387;6
16.01.21;14:45:00;1;2859;14852;0;2;0;4;6;0;346;5;3;0;18;6;1;466;9;4;0;0;0;0;0;0;5;0;0;0;0;0;0;0;0;6;0;0;1;0;0;0;0;0;7;0;83;6;0;331;10;8;0;56;6;0;318;9;9;0;10;6;0;342;6
16.01.21;14:40:00;1;1854;14586;0;2;0;4;6;0;360;5;3;0;18;6;1;493;9;4;0;0;0;0;0;0;5;0;0;0;0;0;0;0;0;6;0;0;1;0;0;0;0;0;7;0;83;6;0;371;10;8;0;56;6;0;358;9;9;0;10;6;0;388;6
16.01.21;14:35:00;1;464;14476;0;2;0;4;6;0;369;5;3;0;18;4;1;499;9;4;0;0;0;0;0;0;5;0;0;0;0;0;0;0;0;6;0;0;2;0;0;0;0;0;7;0;83;6;0;400;10;8;0;56;6;0;388;9;9;0;10;6;0;400;6
16.01.21;14:30:00;1;825;14440;0;2;0;4;6;0;359;5;3;0;18;3;4;453;9;4;0;0;0;0;0;0;5;0;0;0;0;0;0;0;0;6;0;0;2;0;0;0;0;1;7;0;83;6;0;368;10;8;0;56;6;0;356;9;9;0;10;6;0;386;6
16.01.21;14:25:00;1;641;14374;0;2;0;4;6;0;360;5;3;0;18;6;1;489;9;4;0;0;0;0;0;0;5;0;0;0;0;0;0;0;0;6;0;0;2;0;0;0;0;0;7;0;83;6;0;368;10;8;0;56;6;0;356;9;9;0;10;6;0;386;6
16.01.21;14:20:00;1;1289;14297;0;2;0;4;6;0;367;5;3;1;18;6;3;479;9;4;0;0;0;0;0;0;5;0;0;0;0;0;0;0;0;6;0;0;1;0;0;0;0;1;7;0;83;6;0;391;10;8;0;56;6;0;380;9;9;0;10;6;0;414;6
16.01.21;14:15:00;1;1471;14188;0;2;0;4;6;0;372;5;3;0;18;6;4;478;9;4;0;0;0;0;0;0;5;0;0;0;0;0;0;0;0;6;0;0;1;0;0;0;0;2;7;0;83;6;0;406;10;8;0;56;6;0;394;9;9;0;10;6;0;417;6
16.01.21;14:10:00;1;2100;14078;0;2;0;4;6;0;376;5;3;1;18;6;4;488;9;4;0;0;0;0;0;0;5;0;0;0;0;0;0;0;0;6;0;0;1;0;0;0;0;0;7;0;83;6;0;408;10;8;0;56;6;0;408;9;9;0;10;4;0;421;6
16.01.21;14:05:00;1;1526;13941;0;2;0;4;6;0;378;5;3;0;18;6;0;511;9;4;0;0;0;0;0;0;5;0;0;0;0;0;0;0;0;6;0;0;2;0;0;0;0;2;7;0;83;6;0;403;10;8;0;56;6;0;412;10;9;0;10;3;0;419;6
16.01.21;14:00:00;1;970;13814;0;2;0;4;6;0;379;5;3;3;18;3;5;484;9;4;0;0;0;0;0;0;5;0;0;0;0;0;0;0;0;6;0;0;0;0;0;0;0;4;7;1;83;6;0;405;10;8;0;56;6;0;398;10;9;0;10;6;0;427;6
16.01.21;13:55:00;1;1868;13707;0;2;0;4;6;0;391;5;3;2;18;6;6;494;9;4;0;0;0;0;25;0;5;0;0;0;0;0;0;0;0;6;0;0;1;3;2;29;27;10;7;0;83;6;1;442;11;8;0;56;6;1;436;10;9;2;10;6;1;453;6
16.01.21;13:50:00;1;1301;13583;0;2;0;4;6;0;396;5;3;1;17;6;4;526;9;4;0;0;2;0;82;0;5;0;0;0;0;0;0;0;0;6;0;0;2;7;4;68;66;6;7;0;83;4;1;444;11;8;0;56;6;1;441;10;9;0;10;6;0;489;6
16.01.21;13:45:00;1;2128;13456;0;2;0;4;6;0;396;5;3;4;17;6;7;499;9;4;0;0;2;0;81;0;5;0;0;0;0;0;0;0;0;6;0;0;1;5;7;101;98;9;7;1;83;3;3;431;11;8;0;56;6;2;429;10;9;2;10;6;2;466;6
16.01.21;13:40:00;1;3952;13274;0;2;0;4;6;0;406;5;3;1;17;6;4;537;9;4;0;0;1;0;95;0;5;0;0;0;0;0;0;0;0;6;0;0;2;7;2;130;128;11;7;2;83;6;4;473;11;8;0;56;6;0;489;10;9;0;10;6;0;541;6
16.01.21;13:35:00;1;2433;12956;0;2;0;4;6;0;406;5;3;0;17;6;0;561;9;4;0;0;1;0;96;0;5;0;0;0;0;0;0;0;0;6;0;0;2;7;3;125;122;11;7;1;83;6;10;445;11;8;3;56;3;6;445;10;9;2;10;3;4;509;6
16.01.21;13:30:00;1;1120;12750;0;2;0;4;6;0;407;5;3;4;17;3;10;514;9;4;0;0;1;0;97;0;5;0;0;0;0;0;0;0;0;6;0;0;2;7;3;129;126;11;7;1;83;6;4;480;11;8;2;56;6;4;474;10;9;0;10;6;2;523;6
16.01.21;13:25:00;1;1204;12670;0;2;0;4;6;0;408;5;3;1;16;6;5;538;9;4;0;0;1;0;99;0;5;0;0;0;0;0;0;0;0;6;0;0;2;8;3;140;143;11;7;2;83;6;8;457;11;8;1;56;6;3;465;10;9;2;10;6;2;521;6
16.01.21;13:20:00;1;728;12593;0;2;1;4;6;2;410;5;3;3;16;6;8;550;9;4;0;0;1;0;120;0;5;0;0;0;0;0;0;0;0;6;0;0;23;8;3;309;388;11;7;0;82;6;0;519;11;8;0;56;6;7;492;10;9;1;9;6;4;544;6
16.01.21;13:15:00;1;1101;12529;0;2;2;3;6;3;418;5;3;4;16;6;10;561;9;4;0;0;1;0;139;0;5;0;0;0;0;0;0;0;0;6;0;0;23;7;1;583;181;11;7;51;82;4;81;435;11;8;37;56;6;50;446;10;9;3;9;6;6;561;6
16.01.21;13:10:00;1;527;12450;0;2;1;3;4;7;412;5;3;7;16;6;10;569;9;4;0;0;1;0;148;0;5;0;0;0;0;0;0;0;0;6;0;0;23;6;2;477;296;11;7;60;78;4;96;478;11;8;60;52;4;90;454;10;9;5;9;6;7;572;6
16.01.21;13:05:00;1;537;12406;0;2;1;3;6;4;419;5;3;6;15;6;11;564;9;4;0;0;1;0;144;0;5;0;0;0;0;0;0;0;0;6;0;0;23;7;4;249;514;11;7;50;73;4;97;480;11;8;56;47;4;92;448;10;9;4;9;3;8;567;6
16.01.21;13:00:00;1;538;12361;0;2;1;3;6;4;417;5;3;12;15;3;21;539;9;4;0;0;1;0;143;0;5;0;0;0;0;0;0;0;0;6;0;0;23;6;2;453;312;11;7;57;69;4;93;459;11;8;51;42;4;89;426;10;9;4;8;6;8;566;6
16.01.21;12:55:00;1;1328;12311;0;2;2;3;6;4;418;5;3;6;13;6;11;563;9;4;0;0;1;0;143;0;5;0;0;0;0;0;0;0;0;6;0;0;23;5;3;181;581;11;7;82;64;4;94;408;11;8;55;38;4;80;429;10;9;4;8;6;8;566;6
16.01.21;12:50:00;1;673;12232;0;2;1;3;6;3;426;5;3;6;13;6;10;572;9;4;0;0;1;0;154;0;5;0;0;0;0;0;0;0;0;6;0;0;23;6;4;301;533;11;7;85;57;4;114;468;10;8;59;34;4;96;470;9;9;5;8;6;8;576;6
16.01.21;12:45:00;1;627;12177;0;2;1;3;6;4;420;5;3;5;12;6;11;565;9;4;0;0;1;0;147;0;5;0;0;0;0;0;0;0;0;6;0;0;23;11;2;592;181;11;7;81;50;4;107;430;10;8;67;29;4;89;385;9;9;5;7;6;9;570;6
16.01.21;12:40:00;1;1133;12120;0;2;3;3;4;8;405;5;3;5;12;6;10;563;9;4;0;0;1;0;141;0;5;0;0;0;0;0;0;0;0;6;0;0;23;12;3;518;247;11;7;59;44;4;78;357;10;8;44;23;4;74;361;9;9;0;7;6;0;588;6
16.01.21;12:35:00;1;685;12030;0;2;2;2;3;7;407;5;3;5;11;6;10;562;9;4;0;0;1;0;139;0;5;0;0;0;0;0;0;0;0;6;0;0;23;7;3;241;575;11;7;52;39;4;75;360;10;8;41;19;4;62;363;9;9;3;7;4;7;560;6
16.01.21;12:30:00;1;3087;11935;0;2;2;2;6;4;418;5;3;11;11;4;20;534;9;4;0;0;1;0;139;0;5;0;0;0;0;0;0;0;0;6;0;0;23;6;1;583;181;11;7;56;34;4;75;354;10;8;42;16;4;68;370;9;9;7;7;6;13;535;6
16.01.21;12:25:00;1;745;11705;0;2;3;2;6;8;406;5;3;5;10;3;10;562;9;4;0;0;1;0;137;0;5;0;0;0;0;0;0;0;0;6;0;0;23;7;2;580;183;11;7;47;29;4;76;385;10;8;15;12;6;22;471;9;9;3;6;6;7;560;6
16.01.21;12:20:00;1;1661;11643;0;2;2;1;6;4;410;5;3;10;9;6;20;536;9;4;0;0;1;0;138;0;5;0;0;0;0;0;0;0;0;6;0;0;23;6;3;181;565;11;7;45;26;4;84;408;9;8;22;11;4;35;453;9;9;4;6;6;7;561;6
16.01.21;12:15:00;1;2628;11516;0;2;2;1;6;7;401;5;3;4;8;6;8;558;9;4;0;0;1;0;129;-1;5;0;0;0;0;0;0;0;0;6;0;0;23;8;3;180;363;11;7;11;22;3;21;483;9;8;12;9;6;20;477;9;9;3;5;6;5;556;6
16.01.21;12:10:00;1;2610;11295;0;2;0;1;6;0;415;5;3;4;8;6;12;519;9;4;0;0;1;0;108;-1;5;0;0;0;0;0;0;0;0;6;0;0;1;7;2;172;169;11;7;4;21;6;5;481;9;8;0;8;6;0;507;9;9;0;5;6;3;539;6
16.01.21;12:05:00;1;2992;11063;0;2;0;1;6;0;410;5;3;1;8;6;5;541;9;4;0;0;1;0;101;-1;5;0;0;0;0;0;0;0;0;6;0;0;2;7;2;135;132;11;7;3;20;6;8;459;9;8;4;8;3;7;457;9;9;0;5;4;3;527;6
16.01.21;12:00:00;1;2989;10795;0;2;0;1;6;0;403;5;3;2;8;4;4;509;9;4;0;0;1;0;91;-1;5;0;0;0;0;0;0;0;0;6;0;0;2;7;3;96;93;11;7;1;20;6;3;474;9;8;2;7;6;1;468;8;9;5;5;3;5;467;6
16.01.21;11:55:00;1;1689;10538;0;2;0;1;6;0;404;5;3;2;7;3;9;509;9;4;0;0;1;0;93;-1;5;0;0;0;0;0;0;0;0;6;0;0;2;7;3;125;122;11;7;0;20;6;7;453;9;8;4;7;6;5;448;8;9;1;5;6;2;521;6